This is the latest recevied weather packets stored in our database for station/object WX4SGA. If no packets are shown the sender has not sent any weather packets the latest 10 day(s).
| Time | Temp. | Humidity | Pressure | Rain* | Wind** | Luminosity | Snow |
|---|---|---|---|---|---|---|---|
| 1778337876 | 19.44° C | 94% | 1014.9 hPa | 0 mm | - | 111 W/m² | - |
| 1778337573 | 19.44° C | 94% | 1014.9 hPa | 0 mm | - | 108 W/m² | - |
| 1778337270 | 19.44° C | 95% | 1014.9 hPa | 0 mm | - | 118 W/m² | - |
| 1778336966 | 19.44° C | 96% | 1014.9 hPa | 0 mm | - | 119 W/m² | - |
| 1778336663 | 19.44° C | 95% | 1014.9 hPa | 0 mm | - | 107 W/m² | - |
| 1778336358 | 19.44° C | 95% | 1015.2 hPa | 0 mm | - | 82 W/m² | - |
| 1778336056 | 19.44° C | 95% | 1015.2 hPa | 0 mm | - | 122 W/m² | - |
| 1778335753 | 18.89° C | 95% | 1015.2 hPa | 0 mm | - | 100 W/m² | - |
| 1778335449 | 18.89° C | 96% | 1015.6 hPa | 0 mm | - | 65 W/m² | - |
| 1778335147 | 18.89° C | 96% | 1015.9 hPa | 0 mm | - | 49 W/m² | - |
| 1778334845 | 18.89° C | 96% | 1015.6 hPa | 0 mm | - | 51 W/m² | - |
| 1778334542 | 18.89° C | 96% | 1015.6 hPa | 0 mm | - | 80 W/m² | - |
| 1778334239 | 18.89° C | 96% | 1015.2 hPa | 0 mm | - | 67 W/m² | - |
| 1778333936 | 18.89° C | 97% | 1015.2 hPa | 0 mm | - | 71 W/m² | - |
| 1778333632 | 18.89° C | 97% | 1015.2 hPa | 0 mm | - | 81 W/m² | - |
| 1778333331 | 18.89° C | 97% | 1015.2 hPa | 0 mm | - | 90 W/m² | - |
| 1778333029 | 18.89° C | 98% | 1015.2 hPa | 0 mm | - | 80 W/m² | - |
| 1778332726 | 18.89° C | 98% | 1015.2 hPa | 0 mm | - | 62 W/m² | - |
| 1778332422 | 18.89° C | 98% | 1015.2 hPa | 0 mm | - | 66 W/m² | - |
| 1778332119 | 18.89° C | 98% | 1014.9 hPa | 0 mm | - | 72 W/m² | - |
| 1778331814 | 18.33° C | 98% | 1014.9 hPa | 0 mm | - | 48 W/m² | - |
| 1778331511 | 18.33° C | 99% | 1014.6 hPa | 0 mm | - | 62 W/m² | - |
| 1778331208 | 18.33° C | 99% | 1014.9 hPa | 0 mm | - | 63 W/m² | - |
| 1778330904 | 18.33° C | 99% | 1014.6 hPa | 0 mm | - | 122 W/m² | - |
| 1778330601 | 17.78° C | 99% | 1014.9 hPa | 0 mm | - | 105 W/m² | - |
* Rain latest hour (hover to see other rain measurements)
** Current wind speed in m/s (hover to see current wind gust speed)